Flag for Austria Weather past 2 weeks in Kapfenberg, Styria, Austria

Now
63 °F

Passing clouds.


Feels Like: 63 °F
Forecast: 60 / 88 °F
Wind: 2 mph from Northwest

Location: Zeltweg

Current Time: Jul 4, 2015 at 6:08:41 AM

Latest Report: Jul 4, 2015 at 4:50 AM


Visibility: 9 mi

Pressure: 30.36 "Hg (28.61 "Hg at 504m altitude)

Humidity: 88%

Dew point: 59 °F

Location of KapfenbergLocation

Historic Weather in Kapfenberg — Graph

°F

Kapfenberg temperature yesterday

Maximum temperature yesterday: 86 °F (at 2:50 PM)
Minimum temperature yesterday: 61 °F (at 5:50 AM)
Average temperature yesterday: 77 °F

Past Weeks' High & Low Weather Summary

 TemperatureHumidityPressure
High86 °F (Jul 2, 1:50 PM)100% (Jun 26, 4:50 AM)30.39 "Hg (Jun 26, 4:50 AM)
Low41 °F (Jun 25, 5:50 AM)30% (Jun 30, 3:50 PM)29.80 "Hg (Jun 23, 4:50 AM)
Average63 °F62%30.12 "Hg
* Reported Jun 18 10:50 PM — Jul 3 10:50 PM, Kapfenberg, Weather by CustomWeather, © 2015

Note: Actual official high and low records may vary slightly from our data, if they occured in-between our weather recording intervals... More about our weather records

Advertising

Kapfenberg weather history for previous 24 hours

 ConditionsComfort  
Time TempWeatherWind HumidityBarometerVisibility
10:50 PM
Fri, Jul 3
72 °FPassing clouds.5 mph69%30.39 "Hg9 mi
9:50 PM73 °FPassing clouds.5 mph65%30.36 "Hg9 mi
8:50 PM75 °FScattered clouds.6 mph61%30.36 "Hg25 mi
7:50 PM79 °FScattered clouds.7 mph54%30.33 "Hg25 mi
6:50 PM81 °FScattered clouds.8 mph51%30.33 "Hg25 mi
5:50 PM82 °FScattered clouds.14 mph48%30.30 "Hg25 mi
4:50 PM86 °FPassing clouds.10 mph43%30.30 "Hg25 mi
3:50 PM86 °FScattered clouds.9 mph40%30.30 "Hg25 mi
3:20 PM86 °FPassing clouds.8 mph40%30.30 "Hg25 mi
2:50 PM86 °FScattered clouds.9 mph43%30.30 "Hg25 mi
2:20 PM84 °FPassing clouds.8 mph43%30.33 "Hg25 mi
1:50 PM84 °FPassing clouds.6 mph40%30.33 "Hg22 mi
1:20 PM84 °FPassing clouds.5 mph40%30.33 "Hg22 mi
12:50 PM82 °FPassing clouds.3 mph40%30.33 "Hg22 mi
12:20 PM82 °FPassing clouds.3 mph40%30.33 "Hg22 mi
11:50 AM81 °FPassing clouds.3 mph54%30.33 "Hg22 mi
11:20 AM79 °FPassing clouds.2 mph54%30.33 "Hg22 mi
10:50 AM79 °FPassing clouds.2 mph58%30.36 "Hg19 mi
10:20 AM75 °FPassing clouds.1 mph65%30.36 "Hg16 mi
9:50 AM73 °FPassing clouds.2 mph69%30.36 "Hg16 mi
9:20 AM72 °FPassing clouds.1 mph73%30.36 "Hg12 mi
8:50 AM68 °FPassing clouds.1 mph83%30.36 "Hg12 mi
8:20 AM66 °FPassing clouds.1 mph88%30.36 "Hg12 mi
7:50 AM64 °FPassing clouds.1 mph88%30.36 "Hg9 mi
7:20 AM64 °FPassing clouds.2 mph88%30.36 "Hg9 mi
6:50 AM63 °FScattered clouds.No wind88%30.36 "Hg9 mi
Weather by CustomWeather, © 2015

See weather overviewHow to use our weather pages